Montgomery, NY

7:26 PM EST on January 20, 2017 (GMT -0500)
Orange County

Weather History for KMGJ - May, 2013

Change the Weather History Date:

Monday, May 27, 2013

  Actual Average (KSWF) Record (KSWF)
Temperature  
Mean Temperature 56 °F -  
Max Temperature 75 °F 69 °F 86 °F (2015)
Min Temperature 39 °F 49 °F 37 °F (1980)
Degree Days  
Heating Degree Days 9    
Growing Degree Days 6 (Base 50)    
Moisture  
Dew Point 38 °F    
Average Humidity 55    
Maximum Humidity 86    
Minimum Humidity 23    
Precipitation  
Precipitation 0.00 in - - ()
Sea Level Pressure  
Sea Level Pressure 30.17 in    
Wind  
Wind Speed 6 mph (WSW)    
Max Wind Speed 14 mph    
Max Gust Speed 22 mph    
Visibility 10 miles    
Events      
Averages and records for this station are not official NWS values.
T = Trace of Precipitation, MM = Missing Value Source: NWS Daily Summary

Daily Weather History Graph

Daily Weather History Graph

Search for Another Location

Airport or City:

Trip Planner

Search our weather history database for the weather conditions in past years. The results will help you decide how hot, cold, wet, or windy it might be!

Date:

Astronomy

May. 27, 2013 Rise Set
Actual Time 5:28 AM EDT 8:20 PM EDT
Civil Twilight 4:55 AM EDT 8:53 PM EDT
Nautical Twilight 4:13 AM EDT 9:35 PM EDT
Astronomical Twilight 3:25 AM EDT 10:23 PM EDT
Moon 10:57 PM EDT (5/27) 8:02 AM EDT (5/27)
Length of Visible Light 15h 58m
Length of Day
14h 52m
Waning Gibbous, 91% of the Moon is Illuminated
May 27
Waning Gibbous
May 31
Last Quarter
Jun 8
New
Jun 16
First Quarter
Jun 23
Full

Hourly Weather History & Observations

Time (EDT) Temp. Windchill Dew Point Humidity Pressure Visibility Wind Dir Wind Speed Gust Speed Precip Events Conditions
12:54 AM 39.9 °F 35.8 °F 36.0 °F 86% 30.20 in 10.0 mi SW 5.8 mph - N/A   Clear
1:54 AM 42.1 °F 38.4 °F 36.0 °F 79% 30.19 in 10.0 mi SSW 5.8 mph - N/A   Clear
2:54 AM 39.9 °F 35.8 °F 35.1 °F 83% 30.20 in 10.0 mi SW 5.8 mph - N/A   Clear
3:54 AM 39.9 °F 35.8 °F 35.1 °F 83% 30.20 in 10.0 mi SW 5.8 mph - N/A   Clear
4:54 AM 39.0 °F 34.8 °F 34.0 °F 82% 30.22 in 10.0 mi SW 5.8 mph - N/A   Clear
5:54 AM 41.0 °F 35.8 °F 35.1 °F 79% 30.22 in 10.0 mi SW 8.1 mph - N/A   Clear
6:54 AM 46.0 °F 41.9 °F 37.0 °F 71% 30.22 in 10.0 mi WSW 8.1 mph - N/A   Clear
7:54 AM 51.1 °F - 39.9 °F 66% 30.23 in 10.0 mi SSW 5.8 mph - N/A   Clear
8:54 AM 57.9 °F - 37.9 °F 47% 30.23 in 10.0 mi West 10.4 mph - N/A   Clear
9:54 AM 62.1 °F - 39.9 °F 44% 30.22 in 10.0 mi WSW 10.4 mph - N/A   Clear
10:54 AM 66.9 °F - 37.9 °F 34% 30.20 in 10.0 mi WNW 9.2 mph 18.4 mph N/A   Clear
11:54 AM 68.0 °F - 37.0 °F 32% 30.18 in 10.0 mi West 13.8 mph 21.9 mph N/A   Clear
12:54 PM 70.0 °F - 39.0 °F 32% 30.17 in 10.0 mi Variable 5.8 mph 16.1 mph N/A   Clear
1:54 PM 71.1 °F - 37.0 °F 29% 30.15 in 10.0 mi NW 10.4 mph - N/A   Clear
2:54 PM 73.0 °F - 36.0 °F 26% 30.13 in 10.0 mi West 11.5 mph 18.4 mph N/A   Clear
3:54 PM 73.9 °F - 35.1 °F 24% 30.12 in 10.0 mi NW 10.4 mph - N/A   Clear
4:54 PM 73.9 °F - 34.0 °F 23% 30.11 in 10.0 mi North - - N/A   Clear
5:54 PM 73.9 °F - 37.9 °F 27% 30.11 in 10.0 mi NW 5.8 mph - N/A   Clear
6:54 PM 72.0 °F - 36.0 °F 27% 30.11 in 10.0 mi WNW 4.6 mph - N/A   Clear
7:54 PM 64.0 °F - 42.1 °F 45% 30.12 in 10.0 mi Calm Calm - N/A   Clear
8:54 PM 55.9 °F - 44.1 °F 64% 30.13 in 10.0 mi Calm Calm - N/A   Clear
9:54 PM 52.0 °F - 44.1 °F 74% 30.14 in 10.0 mi Calm Calm - N/A   Clear
10:54 PM 48.0 °F - 43.0 °F 83% 30.16 in 10.0 mi SW 3.5 mph - N/A   Clear
11:54 PM 48.9 °F - 43.0 °F 80% 30.17 in 10.0 mi Calm Calm - N/A   Clear